Zurück zum Katalog

NIMBUS 2 DEB

LostSSO
NORAD 28614·DEBRIS·🇺🇸 United States

Gestartet May 15, 1966 von Vandenberg Space Force Base

Loading…

Nächste Überflüge (nächste 24 Stunden)

TLE

VeraltetSource: Space-Track

Epoche: Jan 25, 2014, 12:13 UTC

1 28614U 66040AD  14025.50939937 -.00000329  00000-0 -49682-3 0  9992
2 28614 100.3417 128.0335 0037753 318.0196 104.4689 13.42437531478480

Verfolge NIMBUS 2 DEB in Echtzeit mit AllMySat

Download on the App Store